Temp
29 28 28 28 28 27 27 27 27 27 27 27 27 27 27 27 26 26 26 26 26 26 26 27 27 26 26 27 27 27 26 26 26 26 25 25 26 26 25 25 25 26 26 26 27 27 26 26 26 26 26 27 27 28 28 28 28 28 28 28 28 28 27 26 25 26 27 27 28 29 29 28 28 28 28 28 29 29 28 28 29 29 29 30 30
29 29 29 28 28 28 28 27 27 27 27 27 28 27 27 27 27 26 26 26 26 26 26 26 27 27 27 27 27 27 26 26 26 27 26 26 26 26 26 25 25 26 26 26 26 27 26 26 26 26 27 27 27 28 28 29 29 29 28 27 27 27 27 26 25 25 27 27 28 28 29 28 28 28 28 29 29 28 28 29 29 29 30 30 30
28 28 28 28 28 28 28 28 28 28 28 28 28 28 28 28 27 26 26 26 26 26 26 26 26 26 26 26 26 27 26 26 26 27 27 26 26 26 26 26 26 26 26 26 26 27 27 27 27 27 27 27 27 27 28 28 29 28 28 28 28 28 27 26 25 25 27 27 28 28 28 28 28 28 28 28 29 29 29 29 29 29 30 30 30
28 27 28 28 28 28 28 28 28 28 28 28 28 28 28 28 27 27 27 27 26 26 26 26 26 26 26 26 26 26 26 26 26 26 27 26 26 26 27 27 27 26 26 27 27 27 27 27 27 27 27 27 27 27 28 28 28 28 28 28 28 28 28 27 26 26 27 27 27 28 28 28 28 28 29 29 29 28 29 29 29 29 29 29 30
27 27 27 27 27 28 28 28 28 28 28 29 29 29 29 29 28 27 27 27 27 26 26 26 26 26 26 26 26 26 26 26 26 26 27 27 26 26 27 26 27 27 27 27 27 27 27 27 27 27 27 27 27 28 28 28 28 28 28 28 28 28 28 27 27 27 27 27 27 27 28 28 28 29 29 29 29 29 29 29 29 29 29 29 30
27 27 26 27 27 27 28 28 28 28 28 29 29 29 29 29 28 27 27 27 27 27 27 27 27 26 26 26 26 26 26 26 26 26 27 27 27 27 27 27 26 26 27 27 27 27 27 27 27 27 27 28 28 28 28 28 28 28 28 28 28 28 28 28 28 27 27 27 27 28 28 29 29 29 29 29 29 29 28 28 28 29 29 29 29
26 26 26 26 26 27 27 28 28 28 28 29 29 29 29 29 28 27 27 27 28 28 27 27 27 27 26 26 27 26 26 26 26 26 27 27 27 27 27 27 27 26 27 27 27 27 27 27 27 28 27 28 28 28 28 28 28 28 28 28 28 27 28 28 28 28 28 28 28 29 29 29 29 29 29 29 29 29 29 29 29 29 29 29 28
25 25 26 26 26 27 27 28 28 28 28 28 28 29 29 29 29 28 28 28 28 29 28 28 27 27 27 26 27 27 26 26 27 26 26 27 27 27 27 27 27 27 27 27 27 28 28 28 28 28 28 28 28 28 28 28 28 28 28 28 28 27 27 28 28 28 28 28 28 29 29 29 29 29 29 30 30 30 30 30 29 29 29 29 29
24 25 25 25 25 26 26 27 27 27 27 27 27 27 28 28 29 29 28 28 28 28 29 28 28 27 27 27 27 27 27 27 27 27 27 27 27 27 27 27 27 28 27 28 28 28 28 29 29 29 29 28 28 27 28 27 27 27 27 27 27 27 27 27 27 27 27 28 28 28 29 29 29 29 30 30 30 30 30 30 30 29 29 29 28
24 24 24 24 25 25 25 25 25 26 26 26 26 26 27 27 28 28 28 28 28 28 28 28 28 27 27 27 27 28 28 28 27 27 27 26 27 27 27 27 27 27 27 28 28 28 28 29 29 29 29 28 28 27 27 27 27 27 27 27 26 26 26 27 27 27 27 28 28 28 29 29 30 30 30 30 30 30 30 30 29 29 28 28 28
22 23 23 23 23 23 24 24 24 24 24 24 24 25 25 26 27 27 27 28 28 27 27 28 28 27 27 27 27 27 28 28 28 27 27 27 27 27 27 27 27 27 27 27 28 28 28 29 29 29 29 28 28 27 27 27 27 27 27 26 26 26 26 26 27 27 27 28 28 28 29 29 29 29 29 30 30 29 29 28 28 28 28 27 28
22 22 22 22 22 23 23 23 24 24 23 23 23 23 24 24 25 25 26 27 27 27 27 27 27 27 27 27 27 27 28 28 28 28 28 27 27 27 27 28 28 27 28 28 28 28 28 29 29 29 29 29 28 27 27 27 27 27 27 27 26 26 26 26 26 26 27 27 27 28 28 28 28 28 29 29 28 28 27 27 27 27 27 27 27
21 22 22 22 22 22 22 22 23 23 23 23 23 23 23 23 23 24 25 25 25 25 25 26 27 27 27 27 27 28 28 29 28 28 28 27 27 26 27 28 28 28 28 28 28 28 28 28 28 29 29 29 28 28 27 27 27 27 26 26 26 26 26 26 26 26 26 26 26 27 27 27 27 28 28 27 27 26 26 26 26 26 27 27 27
21 21 21 21 21 21 21 21 21 22 22 22 23 23 23 23 23 23 23 24 24 24 24 25 26 26 27 27 27 28 28 28 28 28 27 27 26 26 26 27 28 28 28 28 28 28 28 28 28 28 28 28 28 28 28 27 27 27 26 26 26 26 27 27 27 27 26 26 26 26 27 27 27 27 27 27 26 26 26 26 26 26 26 26 26
20 21 20 20 20 20 20 21 21 21 21 21 22 21 21 22 23 23 22 23 23 23 23 23 24 25 26 27 27 27 27 27 27 27 27 26 26 26 25 26 27 28 28 28 28 28 28 28 27 27 28 28 28 28 28 27 27 27 26 26 26 27 27 27 27 27 27 27 26 26 26 27 27 27 27 27 27 26 26 26 25 25 25 25 25
19 19 19 19 20 20 20 20 20 20 20 20 20 20 20 21 22 22 22 22 23 22 22 22 23 23 24 25 27 26 26 26 26 26 26 25 25 25 25 25 26 27 27 28 28 27 27 27 27 27 27 27 27 27 27 26 26 26 26 27 27 28 28 29 28 28 28 28 27 27 27 28 28 27 27 27 26 26 26 25 25 25 25 25 26
19 19 19 19 19 19 19 20 19 19 19 19 19 19 20 21 21 21 21 22 22 22 21 21 23 23 22 23 24 24 24 24 24 24 24 24 24 24 25 25 26 26 27 27 28 28 28 27 27 27 26 26 26 26 26 25 25 25 25 26 26 27 28 29 29 29 28 28 28 28 28 27 27 27 26 26 26 25 25 24 24 25 25 25 26
18 19 19 20 20 20 19 20 19 19 19 19 19 19 20 20 20 21 21 21 21 21 21 21 21 23 22 21 20 21 21 22 22 22 23 23 23 24 24 24 25 25 25 25 26 26 26 26 26 26 25 24 24 25 25 24 24 24 24 25 25 26 26 27 27 27 27 27 27 26 27 26 26 26 26 25 25 25 24 24 24 24 25 25 26
18 19 19 20 20 20 20 20 20 19 19 19 19 20 20 20 20 20 20 20 20 20 21 21 20 21 21 20 20 20 20 20 21 21 22 22 22 23 23 23 23 23 24 24 24 23 22 22 23 24 24 24 24 24 24 24 24 23 24 24 25 25 25 25 25 25 25 25 25 25 25 25 25 25 25 25 25 25 24 24 24 24 24 24 24
18 19 19 20 20 20 21 20 20 20 20 19 19 19 19 20 20 20 19 19 19 19 19 20 20 20 19 19 20 21 20 20 21 21 21 21 21 22 22 22 22 22 21 21 22 21 21 21 22 22 23 23 23 23 23 23 23 23 23 23 24 24 24 23 24 24 24 24 24 24 24 24 25 25 24 24 24 24 24 24 23 23 23 23 23
19 19 19 19 20 20 21 20 20 20 20 20 20 20 20 20 20 19 19 19 19 19 19 19 19 19 18 18 19 20 20 20 20 21 21 21 21 21 21 21 21 21 20 20 21 20 20 21 21 21 22 22 21 22 22 22 22 22 22 22 22 22 22 22 23 23 24 24 24 24 24 24 24 24 24 24 24 24 24 24 23 23 23 23 22
19 18 18 19 19 20 20 20 20 20 20 20 20 20 20 20 20 20 19 19 19 19 18 19 19 18 18 18 19 19 19 19 19 20 20 20 20 20 20 20 20 20 21 21 21 20 19 20 20 20 20 20 20 21 21 21 21 21 21 21 21 21 21 21 22 22 23 24 24 24 24 23 23 24 24 23 23 23 23 23 23 23 23 23 23
18 18 18 18 19 19 19 20 20 20 20 20 20 20 20 20 20 20 20 20 20 20 19 19 19 19 19 18 18 18 19 19 19 19 19 19 19 19 20 20 20 20 20 21 21 20 19 20 20 20 20 20 21 21 21 21 21 21 21 21 21 22 22 22 22 22 23 23 23 23 23 22 23 23 23 23 23 23 23 23 23 23 23 23 23
18 18 18 18 19 19 19 19 20 20 20 20 20 20 20 20 20 20 20 20 21 21 20 20 20 21 20 19 18 18 18 18 19 19 19 19 19 19 19 20 20 20 20 21 21 20 20 20 20 20 20 20 21 21 21 21 21 21 21 22 22 23 23 22 22 22 23 23 23 22 23 23 23 23 23 23 22 22 23 23 23 23 23 23 23
18 19 19 19 19 19 20 20 19 20 20 20 20 21 21 21 20 20 21 21 21 21 21 21 21 21 21 20 19 19 19 19 19 19 18 19 19 19 19 20 20 20 20 20 20 20 20 20 21 21 21 21 21 21 21 21 21 21 22 22 22 22 22 22 22 23 23 23 23 23 24 24 24 23 23 22 22 22 22 23 23 23 23 23 23
18 18 19 19 19 20 20 21 21 20 20 20 21 21 21 21 20 21 21 21 20 21 21 21 22 21 21 21 20 20 20 20 19 18 18 18 18 19 19 20 20 20 20 20 20 20 20 20 21 21 21 21 21 21 21 21 21 22 22 23 22 22 22 22 23 23 23 23 23 24 24 23 23 22 22 22 22 22 22 22 22 23 23 23 23
18 19 19 19 19 20 20 20 21 21 21 21 21 21 21 21 21 21 21 21 21 22 22 22 22 22 21 21 21 21 20 20 19 18 18 18 19 19 19 19 20 20 20 20 20 20 20 20 20 21 21 21 21 21 21 21 22 22 23 23 23 22 23 23 22 22 22 22 22 22 22 22 22 22 22 22 23 22 22 22 22 22 22 22 22
18 18 18 19 19 19 19 19 20 21 21 20 20 20 20 20 20 20 19 19 20 21 22 22 22 21 22 21 21 21 20 18 18 18 18 18 18 18 18 19 19 19 19 20 20 20 20 20 20 21 21 21 21 22 22 22 22 23 23 23 23 23 23 22 22 22 21 21 21 21 21 21 21 21 21 22 22 22 21 21 21 21 21 22 23
18 18 18 18 19 19 19 19 20 20 21 20 18 18 18 19 19 18 17 17 17 18 19 20 19 19 20 20 19 19 18 17 16 17 17 17 18 18 18 18 19 19 19 19 19 20 20 21 22 23 23 22 23 23 23 23 23 23 23 23 23 23 23 22 22 21 21 20 21 21 21 21 21 21 21 21 21 21 21 20 20 20 21 22 22
18 18 18 18 18 19 19 19 18 19 20 20 18 17 17 17 17 17 16 16 17 17 17 17 17 17 18 18 17 17 16 16 16 17 17 17 17 17 18 18 18 19 19 19 19 19 20 21 23 24 23 23 24 24 24 23 23 23 23 23 22 22 22 22 21 21 20 20 20 21 21 21 21 21 22 22 21 21 21 21 20 21 21 22 22
18 18 18 17 17 17 18 18 18 18 18 18 18 18 17 16 16 16 16 16 16 16 16 16 16 16 17 16 15 15 16 16 16 16 16 17 17 17 18 18 18 18 19 18 19 19 20 22 23 23 23 23 24 23 23 23 23 22 22 22 22 22 22 21 20 19 20 20 20 20 21 21 21 21 21 21 21 21 21 21 21 21 22 22 22
17 17 17 16 16 17 17 17 17 17 17 17 18 18 18 17 16 15 15 16 16 16 16 16 16 16 16 16 15 15 15 15 15 16 16 16 17 17 17 18 18 18 18 18 19 20 21 22 23 23 23 23 23 23 23 23 22 22 21 21 21 21 21 19 18 18 19 20 20 20 20 21 21 21 21 21 21 21 21 21 21 22 22 22 22
15 15 15 15 16 16 16 16 16 17 17 17 17 18 18 19 18 16 15 15 15 15 15 15 15 15 15 15 15 15 15 15 15 15 16 16 16 17 17 17 17 18 18 18 18 19 21 22 22 22 22 22 22 22 22 22 21 21 21 21 21 21 20 18 18 18 19 19 19 20 20 20 20 20 20 20 20 20 20 21 21 21 21 21 22
13 14 14 14 15 15 16 16 16 16 16 16 17 17 18 18 18 18 17 16 15 15 15 15 15 15 15 15 15 14 14 14 14 15 15 16 16 16 17 17 17 17 17 18 18 19 20 21 21 22 22 22 22 21 21 21 21 21 21 20 20 20 19 18 18 18 18 18 19 19 19 19 19 19 19 19 19 19 20 20 20 20 20 20 20
13 13 13 13 14 15 15 15 15 15 15 15 16 17 17 17 17 18 18 18 17 17 16 15 15 15 15 15 14 14 14 14 14 14 15 15 15 16 16 17 17 18 18 18 18 18 20 20 20 21 21 21 21 20 20 20 20 20 20 20 19 19 18 18 19 18 17 17 18 18 18 18 18 18 18 19 19 19 19 19 19 19 19 19 19
14 14 13 13 13 14 14 14 14 14 14 14 15 16 16 17 17 18 18 18 18 18 18 17 16 15 15 15 14 14 14 14 14 14 15 15 15 15 16 17 18 19 19 19 18 19 19 19 20 20 20 20 19 19 19 19 19 19 19 19 18 18 18 18 18 17 16 17 18 18 18 18 18 18 18 18 18 18 18 18 18 18 18 18 18
14 14 13 13 12 13 13 13 13 13 13 13 15 16 16 17 17 17 17 17 17 17 17 17 17 16 15 15 15 14 14 14 15 15 15 16 16 16 16 17 18 19 19 19 20 20 19 19 19 19 19 19 19 18 18 18 18 18 18 17 17 17 17 17 17 17 16 17 17 18 18 18 18 18 18 18 18 18 18 18 18 18 18 18 17
14 13 12 12 12 12 13 13 13 13 14 14 15 16 16 16 16 16 17 17 16 17 17 17 17 17 16 16 15 14 14 14 16 16 16 16 16 16 17 18 19 19 19 20 20 20 20 19 19 18 18 18 18 17 17 17 17 17 17 16 16 16 17 17 17 17 17 17 17 18 18 17 17 17 17 17 17 17 17 17 17 17 17 17 17
13 12 12 11 12 12 13 13 14 14 14 15 15 15 16 16 16 16 16 17 17 17 17 17 17 16 15 14 13 13 13 14 15 17 17 17 17 18 18 18 18 19 19 19 18 17 18 18 18 18 17 17 17 16 16 16 16 16 16 16 16 16 16 16 16 17 17 17 17 17 17 17 17 17 17 16 16 16 16 16 16 16 16 17 17
14 13 12 12 12 12 12 13 14 14 14 14 15 15 15 15 15 16 16 16 16 16 16 16 16 14 13 12 12 12 12 13 14 16 16 17 17 17 16 15 15 16 16 15 14 14 15 15 15 15 16 15 15 15 15 15 15 15 15 15 15 15 15 16 16 16 16 16 16 16 16 16 16 16 15 15 15 15 15 15 16 16 16 16 17
14 14 13 12 12 12 13 13 14 14 13 13 14 14 15 15 15 15 15 15 15 15 15 15 15 13 11 11 11 11 11 12 14 15 16 16 15 14 13 12 12 13 13 12 12 12 12 13 13 13 13 13 13 13 13 13 13 13 13 14 14 14 14 15 15 15 15 15 15 15 15 15 15 15 14 14 14 14 14 15 15 15 16 16 16
13 14 14 13 12 13 13 14 13 13 12 13 13 13 14 14 14 14 14 14 14 14 14 14 14 13 11 10 10 10 10 12 14 15 15 14 14 13 12 11 11 11 11 11 11 11 11 11 11 11 11 11 11 11 11 11 12 12 12 12 12 13 13 13 14 14 14 14 14 14 14 14 13 13 14 14 14 14 14 14 14 15 15 15 15
12 13 13 13 13 13 13 13 13 12 12 12 12 12 12 12 13 13 13 13 13 13 13 14 14 13 12 10 10 10 11 13 14 14 14 13 13 12 11 11 10 10 10 10 10 10 11 11 11 10 10 10 10 10 10 10 10 10 11 11 11 11 12 12 12 12 13 13 13 13 13 13 13 13 13 13 13 13 13 14 14 14 14 14 15
12 12 13 13 13 13 12 12 12 12 12 12 11 11 11 11 12 12 13 13 13 13 13 13 12 12 11 11 11 11 12 13 13 12 12 12 12 12 11 10 9 9 9 10 9 9 10 10 10 10 9 9 9 9 9 9 9 9 10 10 10 10 11 11 11 11 11 11 11 11 11 12 12 12 12 12 12 12 12 12 13 13 13 14 14
12 12 13 13 13 12 12 12 11 11 11 11 11 11 11 11 12 12 12 12 12 11 11 11 11 11 11 10 10 11 11 11 10 10 10 11 11 11 10 9 9 9 9 9 9 9 9 9 9 9 9 9 9 9 9 9 9 9 9 10 9 10 10 9 9 9 9 9 9 9 9 9 10 10 10 10 10 11 11 12 12 12 13 13 13
12 13 13 13 13 13 12 12 11 11 11 11 11 12 12 12 12 11 11 10 10 9 9 10 10 10 10 10 9 9 9 9 9 9 9 9 9 9 8 8 8 8 9 9 8 8 8 8 8 8 8 8 8 8 8 9 9 9 9 9 8 8 8 8 8 7 7 7 7 7 7 7 7 8 8 9 9 10 11 11 11 12 12 12 12
12 12 13 13 13 12 12 12 11 10 10 10 11 11 11 11 11 10 9 9 9 9 9 9 10 10 9 9 9 9 8 8 8 8 8 8 7 6 6 7 7 7 8 8 8 8 8 8 8 8 8 8 8 8 8 8 8 9 9 8 7 7 7 7 6 6 5 5 5 5 6 6 6 7 7 8 8 9 10 10 11 11 11 11 12
12 12 12 12 12 12 12 11 11 10 10 10 10 10 10 10 10 9 9 9 9 9 8 8 9 9 8 8 8 8 8 7 7 8 7 7 6 6 6 6 6 7 7 7 8 8 8 8 7 7 7 8 8 8 8 8 8 8 7 6 6 6 6 5 5 4 4 4 4 4 4 5 5 6 6 7 7 8 8 9 10 10 10 11 11
12 12 12 11 11 11 11 11 11 10 10 10 10 10 10 9 9 9 9 9 8 8 8 8 8 7 7 7 7 7 7 7 7 7 7 6 6 6 6 6 6 6 6 7 7 7 7 7 7 7 7 7 7 7 8 8 7 7 6 6 5 5 5 5 5 4 4 4 3 3 3 4 4 5 6 6 7 7 8 8 9 9 10 10 10
11 11 11 11 10 10 10 10 10 10 10 9 9 9 9 9 9 9 9 8 8 8 7 7 7 7 7 7 7 7 6 6 6 6 6 6 6 5 5 5 5 5 5 6 6 6 6 7 6 6 6 7 7 7 7 7 6 5 5 5 5 5 5 5 4 4 3 3 3 3 3 4 4 5 5 6 6 7 8 8 8 9 9 9 10
10 10 10 9 9 9 9 9 9 9 9 8 8 8 8 8 8 8 8 7 7 7 7 7 6 6 6 6 6 6 6 5 5 5 5 5 5 5 5 5 4 4 4 5 5 5 5 5 5 5 6 6 6 6 6 6 5 4 4 4 4 4 4 4 3 3 3 3 3 3 3 4 4 5 5 6 6 7 7 8 8 8 8 9 9
Height
827 830 831 833 835 837 838 840 841 842 843 844 845 846 847 848 849 850 851 853 854 855 856 855 856 856 856 857 858 859 860 861 861 862 863 863 864 864 864 864 865 865 865 865 865 866 866 866 866 866 866 866 865 865 864 864 863 863 863 863 863 863 863 865 866 865 862 861 860 858 857 857 856 855 855 854 852 851 851 850 849 847 845 843 842
826 828 830 832 833 835 836 838 839 840 841 843 843 844 845 846 848 849 850 851 852 853 854 854 854 854 855 856 857 858 859 859 860 860 861 862 862 863 863 863 864 864 864 864 864 865 865 865 865 865 865 865 865 864 863 862 862 861 862 862 862 863 863 864 865 864 862 860 859 857 856 856 855 854 854 853 851 851 850 849 847 846 844 843 842
826 828 829 831 832 833 835 836 837 839 839 841 841 842 843 844 845 846 847 849 850 851 852 853 853 853 853 855 855 856 857 858 859 859 860 860 861 861 861 861 862 862 863 863 863 863 863 864 864 863 864 863 863 863 863 862 861 861 861 861 861 862 862 863 864 863 861 859 858 857 855 855 854 853 853 852 851 850 849 848 846 845 844 842 841
825 827 828 830 831 832 833 834 836 836 837 838 839 840 841 842 843 844 845 846 847 848 850 851 852 852 852 853 854 855 856 857 858 858 858 859 859 860 860 860 860 861 861 862 862 862 862 862 862 862 862 862 862 862 862 862 862 861 861 861 860 861 861 861 861 861 859 858 857 856 855 854 853 852 851 850 850 849 848 847 845 844 843 842 841
824 826 827 829 830 831 832 833 834 834 835 836 836 838 839 839 841 843 844 844 845 846 847 849 850 850 850 851 852 853 854 855 856 857 857 858 858 858 858 859 859 860 860 861 861 861 861 861 861 861 861 861 861 861 861 861 861 860 860 860 860 860 860 860 859 859 858 857 856 855 854 853 852 851 850 849 848 848 847 846 845 843 842 841 839
823 825 826 827 828 830 831 831 832 833 833 834 834 835 836 837 839 840 842 842 843 844 845 846 847 848 848 849 850 851 852 853 854 855 855 856 856 857 857 857 858 858 859 859 859 859 859 860 860 860 860 860 859 860 860 860 860 860 860 859 859 859 859 858 858 857 857 856 855 854 853 851 850 849 849 848 847 846 845 844 843 842 841 840 838
822 824 825 826 827 828 829 830 831 831 832 833 833 833 834 835 836 838 839 840 840 841 842 843 845 845 846 847 848 849 850 851 852 853 854 854 854 855 855 856 856 857 857 857 857 857 857 858 858 858 858 858 858 858 858 859 859 858 858 858 858 858 858 857 856 856 855 854 853 852 851 850 849 848 847 847 846 845 844 842 841 840 840 838 837
822 823 824 825 826 826 827 828 829 830 831 832 832 833 833 833 834 835 837 837 838 838 839 840 842 843 844 845 846 847 848 849 850 851 852 852 852 853 853 854 854 854 855 855 855 855 855 855 856 856 856 856 857 857 857 858 857 857 857 857 857 857 856 856 855 855 854 853 852 851 850 849 848 847 846 845 844 843 842 841 839 838 838 837 836
821 822 823 824 825 826 826 827 828 829 831 831 832 832 832 833 833 834 835 835 836 837 837 838 839 840 842 844 844 844 845 846 847 848 850 850 850 851 852 852 852 853 853 853 853 853 853 853 853 853 854 854 855 855 856 856 856 856 857 856 856 856 855 855 854 854 853 852 851 850 849 848 846 845 844 843 842 842 841 840 838 837 837 836 834
820 821 822 823 824 825 825 826 827 828 830 831 832 832 832 833 833 833 834 834 835 836 836 837 837 839 841 842 843 843 843 844 845 847 848 849 849 850 850 851 851 852 852 851 852 852 852 852 852 852 852 853 853 854 854 855 855 855 856 856 855 855 855 854 853 853 852 851 850 849 847 846 845 844 843 842 842 841 839 839 838 837 837 835 833
819 820 821 822 823 824 824 825 826 827 828 830 831 832 832 833 832 833 833 833 834 835 835 836 836 838 839 841 841 841 841 842 844 845 846 847 848 848 849 850 850 850 850 850 850 850 850 850 850 850 851 851 851 852 852 853 853 853 853 853 854 854 853 853 852 851 851 849 848 847 845 844 843 843 842 841 840 840 839 839 838 837 836 834 832
817 818 819 821 822 823 824 824 825 826 827 829 829 831 832 832 832 833 833 833 834 834 835 835 836 837 838 839 840 839 839 840 841 843 843 845 846 847 848 848 848 848 848 848 849 849 848 848 848 848 849 849 850 850 850 851 851 851 851 851 851 851 851 851 850 850 849 848 847 846 844 843 843 842 842 841 840 840 839 839 838 837 835 834 831
816 817 818 820 820 821 823 823 824 825 826 828 829 830 831 832 832 833 833 833 834 835 835 835 835 836 836 837 837 837 837 838 839 840 841 843 844 845 846 846 846 846 846 847 847 847 847 847 847 847 847 847 848 848 849 849 849 849 849 849 849 849 848 848 848 848 848 847 846 845 844 843 842 841 841 841 840 839 838 837 836 835 834 832 831
815 816 817 818 819 820 821 822 822 823 824 826 828 829 830 831 832 833 833 832 833 834 836 836 835 835 835 836 836 836 836 837 837 839 840 841 842 843 844 845 845 844 845 845 845 845 846 846 846 845 845 846 846 846 847 847 847 847 847 846 846 846 846 846 845 845 845 845 844 843 842 842 841 840 840 840 839 838 837 836 834 833 832 830 829
814 815 816 817 819 820 820 821 821 821 822 823 825 827 828 829 830 831 831 832 832 834 835 836 836 835 834 834 835 835 836 836 837 838 839 840 841 842 843 844 843 843 843 843 844 844 844 844 844 844 844 844 844 844 845 845 845 845 845 844 844 844 843 843 842 842 842 841 841 841 840 840 840 839 839 838 838 837 836 835 833 832 830 828 826
815 815 816 817 818 819 820 820 819 820 821 823 824 826 827 827 827 828 829 830 831 832 833 834 835 835 835 834 834 834 834 834 836 837 838 839 840 841 842 843 843 842 842 842 842 842 842 843 842 842 843 843 842 842 843 843 844 844 843 843 842 841 840 840 839 839 839 839 839 839 838 838 838 837 837 836 836 835 834 833 832 830 829 826 823
816 816 817 818 819 820 820 820 819 820 821 823 824 825 825 825 825 826 827 828 828 828 830 832 833 834 835 836 836 833 832 833 836 837 838 839 840 841 841 842 841 841 841 841 841 841 841 841 841 841 841 840 840 841 841 842 843 843 843 842 841 839 838 838 838 838 837 837 837 837 837 837 836 835 835 835 834 833 832 830 829 828 827 824 822
818 818 818 819 820 820 820 820 820 821 822 823 825 825 824 824 825 825 826 826 825 826 828 830 831 831 833 836 837 835 833 833 835 837 838 839 839 840 840 841 840 840 841 842 842 842 842 840 839 839 839 839 839 840 840 841 842 842 841 841 840 839 838 838 838 837 837 836 836 836 836 836 834 833 833 832 832 832 830 828 827 827 825 823 821
820 820 820 820 820 820 820 820 821 821 822 823 824 824 824 824 824 824 824 824 824 825 826 828 829 830 831 833 835 836 835 833 834 836 838 839 839 839 839 839 839 839 840 841 842 843 843 842 839 839 839 839 839 839 838 839 839 839 840 839 838 838 837 836 836 836 835 835 835 835 835 834 832 831 830 829 829 829 827 826 825 825 823 822 821
821 821 822 822 822 821 821 822 822 822 822 822 822 823 823 823 824 824 823 823 824 824 825 826 828 829 830 830 832 834 835 833 833 835 836 838 838 838 839 838 838 839 840 841 842 844 844 842 841 840 839 838 838 837 837 837 837 837 838 837 837 836 835 835 835 835 834 834 834 833 832 831 829 828 828 827 827 826 825 823 823 822 821 820 820
822 823 824 824 824 823 823 823 823 823 823 823 823 823 823 824 824 823 823 823 824 824 825 826 827 828 829 830 832 834 835 834 834 833 834 836 837 838 838 837 837 838 839 840 841 843 844 843 841 840 839 838 837 836 836 836 836 836 836 836 835 835 834 834 834 833 833 832 831 830 829 828 828 827 826 825 825 824 822 821 821 820 819 819 819
824 825 825 826 825 825 825 825 824 824 824 824 824 824 824 824 824 823 823 823 823 824 824 825 827 828 830 832 833 834 836 835 834 833 833 833 836 838 838 838 837 837 837 838 840 842 843 843 842 841 840 838 837 836 835 834 834 834 834 834 833 833 833 833 832 832 831 830 829 828 828 827 826 826 825 824 823 822 820 820 820 819 818 818 817
826 826 827 828 827 827 827 826 826 826 825 825 825 825 824 824 824 824 824 823 823 824 825 825 827 828 831 833 834 834 835 835 833 832 832 833 836 838 838 838 837 837 838 839 840 841 842 842 842 841 839 837 835 834 834 833 833 833 832 832 831 831 831 831 830 830 829 828 827 826 826 826 825 825 824 823 821 820 819 818 817 817 815 815 814
828 828 829 830 829 828 828 828 827 827 826 826 826 826 825 825 825 825 825 825 825 825 826 826 827 828 830 832 833 834 834 833 833 832 833 835 837 839 839 837 836 836 837 838 839 840 840 840 840 838 837 835 834 833 832 832 832 832 831 830 829 829 828 828 828 828 827 826 826 825 825 824 824 823 822 821 820 819 817 816 815 814 813 812 811
830 830 830 831 830 829 829 828 828 828 827 827 827 827 827 826 826 827 827 827 827 827 827 827 828 829 830 831 832 833 833 833 833 834 835 837 838 839 838 836 835 834 835 836 837 838 837 837 836 835 834 833 832 832 831 831 831 831 830 829 828 827 827 827 827 827 826 825 824 824 823 822 822 821 821 820 820 818 816 815 813 812 811 809 808
831 831 831 830 830 830 829 828 828 828 828 828 828 828 828 828 828 828 828 829 829 829 829 829 829 829 830 831 832 833 834 834 835 836 837 838 839 838 837 835 834 834 834 835 836 836 835 835 834 833 833 832 831 831 831 830 830 829 829 828 827 827 827 826 826 826 826 825 824 823 823 822 821 821 820 820 819 817 815 814 812 811 809 808 806
833 831 831 831 831 830 830 829 828 829 829 829 829 830 830 830 830 829 829 830 830 829 830 830 830 830 831 832 833 834 835 836 836 837 838 838 838 837 836 835 835 834 834 835 835 835 834 834 833 833 832 831 831 830 830 829 829 828 827 827 827 827 827 826 826 826 826 826 825 824 823 822 821 821 820 819 818 817 816 814 812 810 809 807 805
834 833 832 832 831 831 831 830 830 830 830 831 831 831 831 831 832 832 832 832 831 830 830 831 832 832 832 833 834 835 836 836 837 838 838 838 837 837 836 836 836 835 835 835 835 834 834 833 832 832 831 831 830 830 829 829 829 828 828 828 827 827 827 826 826 827 827 826 826 825 824 823 822 821 820 819 818 817 816 815 813 811 809 808 805
835 834 833 832 832 832 831 831 831 831 831 832 833 834 834 834 834 835 835 834 833 833 832 832 834 834 834 835 836 836 836 837 837 837 838 838 837 837 837 836 836 835 835 835 834 834 833 832 831 830 830 830 830 829 828 829 829 829 829 829 828 828 827 827 828 828 828 827 826 825 824 824 823 822 820 819 818 817 816 815 813 811 809 808 805
835 834 833 833 833 833 832 832 833 833 832 832 833 834 835 835 836 836 836 835 835 835 835 835 835 836 836 836 837 837 837 837 837 837 837 837 837 837 837 836 836 835 835 834 834 833 832 831 830 829 829 830 829 828 829 829 829 829 829 829 829 829 829 829 829 829 829 828 827 826 825 824 822 821 820 819 817 816 815 814 813 811 809 807 805
836 834 834 835 835 834 834 834 835 835 834 834 834 834 835 835 836 836 836 836 836 836 836 836 836 837 837 837 837 838 838 838 838 838 838 838 837 837 837 836 835 835 834 834 833 833 832 831 830 829 829 829 828 828 829 829 829 830 830 830 830 829 830 830 830 830 829 828 827 826 825 823 822 821 820 818 817 816 815 813 812 810 809 807 805
837 836 836 837 837 837 837 837 836 836 836 836 836 835 835 835 835 836 836 836 837 837 837 837 837 837 837 837 838 838 838 838 838 838 838 838 837 837 837 836 835 835 834 834 833 833 831 830 830 829 829 829 829 829 829 829 830 831 831 831 831 830 831 831 831 831 830 828 827 826 825 823 822 821 820 818 817 815 814 813 811 810 808 806 805
839 838 838 838 838 838 839 838 838 838 837 837 837 836 835 835 835 835 836 836 836 837 837 837 837 838 838 838 838 838 838 838 838 838 838 837 837 837 836 836 836 835 835 834 834 833 832 830 830 829 830 830 830 830 830 830 830 831 831 832 831 831 832 832 832 831 831 829 828 826 825 824 823 821 820 819 817 816 815 813 811 810 808 806 805
841 840 839 839 839 839 839 840 840 839 839 838 838 837 837 836 836 836 835 836 836 836 837 837 837 838 838 838 838 838 838 838 838 838 837 837 837 837 836 836 836 835 835 835 834 833 832 831 830 830 830 830 830 830 830 830 831 831 832 832 832 832 833 833 832 832 831 830 828 826 825 825 823 822 820 819 818 817 815 813 812 810 809 808 806
841 841 840 839 839 840 840 841 841 840 840 840 839 838 838 838 837 836 836 836 836 836 836 836 837 837 838 838 838 838 838 838 837 837 837 836 836 836 836 836 835 834 834 834 834 833 833 832 832 832 831 831 831 832 832 832 832 832 832 833 833 833 833 832 832 832 832 831 829 827 826 825 824 822 821 819 818 817 815 814 812 811 810 808 807
841 841 841 841 841 841 841 841 842 841 841 840 840 840 839 838 838 837 837 837 837 837 836 836 837 837 837 838 838 837 837 837 836 836 836 836 836 836 836 835 834 833 832 832 833 833 833 833 833 833 833 833 833 833 833 833 833 833 833 834 834 834 833 833 832 832 832 830 828 827 826 825 823 822 821 820 818 817 816 814 813 811 810 809 807
842 842 842 842 842 842 842 842 842 842 841 841 841 840 840 839 839 838 838 838 838 838 838 837 837 837 837 837 838 837 837 836 836 835 836 835 835 835 835 835 834 833 832 832 832 832 832 832 833 833 833 833 834 834 834 834 834 834 835 835 835 834 834 833 832 831 830 829 827 826 825 824 823 822 821 820 819 817 816 815 813 811 810 809 808
842 842 842 842 842 842 842 842 842 842 841 841 841 841 840 840 840 840 839 839 839 839 838 838 838 837 837 837 838 838 837 836 835 834 834 834 834 834 834 834 833 833 832 832 831 831 831 831 832 832 833 833 834 834 834 835 835 835 835 835 835 834 834 832 831 830 829 828 827 825 824 824 823 822 821 820 819 818 816 815 813 812 810 808 807
843 842 842 842 842 842 842 842 842 842 842 841 841 841 841 841 841 841 840 840 839 839 839 839 839 838 838 838 838 839 839 838 836 835 834 834 834 835 835 834 834 833 832 832 832 831 831 831 831 832 832 833 833 834 834 835 836 835 835 835 835 834 833 832 831 830 829 828 827 826 825 824 823 822 821 820 819 818 817 816 814 812 809 807 805
843 843 842 842 842 842 842 842 842 842 842 842 842 842 842 841 841 841 841 840 840 840 840 840 840 840 840 840 840 840 841 840 838 837 836 836 836 836 836 836 835 834 834 834 833 833 833 833 832 832 833 833 833 834 835 835 835 836 836 835 835 834 833 832 831 830 829 828 827 826 825 824 823 822 821 821 820 819 817 816 813 811 809 806 804
842 843 842 842 843 842 842 842 842 842 842 843 843 842 842 842 842 842 842 841 841 841 842 842 841 841 841 842 842 842 843 842 840 838 838 838 838 838 838 838 838 837 837 836 836 836 836 835 835 835 834 834 834 835 835 835 836 836 836 836 835 834 833 832 831 830 829 828 827 826 826 824 823 822 822 821 820 819 817 815 813 810 808 806 803
842 842 842 842 842 842 842 842 842 842 843 843 843 843 843 842 842 842 842 842 843 843 843 843 842 841 842 842 843 843 843 842 840 839 839 839 840 840 840 840 840 839 839 838 838 837 837 837 837 837 836 836 836 836 836 836 836 836 837 836 836 835 834 833 832 831 830 829 827 826 825 825 823 822 821 820 819 817 816 814 812 810 807 805 803
841 841 841 842 842 842 842 842 842 842 843 843 843 844 844 843 843 843 842 843 843 843 843 843 842 842 842 843 843 843 842 841 840 840 840 840 841 841 841 841 840 840 839 839 839 839 839 838 838 838 838 837 837 837 837 837 837 837 837 836 836 835 834 833 832 831 830 828 827 826 825 824 823 822 821 820 818 816 814 812 810 808 806 804 801
841 841 841 841 841 841 842 842 842 842 842 843 843 844 844 844 843 843 842 842 843 843 843 843 843 844 844 844 843 842 842 841 841 841 841 841 841 841 841 841 840 840 840 840 839 839 839 839 839 839 838 838 838 837 837 837 837 837 837 836 835 835 834 833 832 831 830 828 827 826 824 823 822 821 820 818 817 815 813 811 809 807 804 802 800
840 840 840 840 840 841 841 841 841 841 842 842 843 843 843 843 843 842 843 843 843 843 844 844 845 845 844 844 844 843 843 843 843 843 842 842 841 841 841 840 840 840 840 840 840 839 839 839 839 839 838 838 838 838 838 838 837 837 837 836 835 833 832 831 831 830 829 828 826 825 824 823 821 820 819 817 816 813 811 809 807 804 802 800 798
839 839 839 839 839 840 840 840 840 841 841 842 842 842 842 842 842 842 843 844 844 845 845 845 845 845 844 844 845 845 844 844 844 843 843 842 842 841 840 840 840 840 840 840 840 839 839 839 839 838 838 838 838 837 838 837 837 837 836 835 832 831 830 830 830 829 828 827 826 825 824 822 821 819 818 816 814 812 809 807 805 802 800 798 796
838 838 838 838 838 839 840 840 840 840 841 842 842 842 842 842 842 844 845 845 845 846 845 845 845 845 845 845 845 845 844 844 844 843 843 843 842 841 841 840 840 840 840 840 840 839 839 839 839 838 838 838 837 837 837 836 836 837 835 832 830 829 830 830 829 829 827 826 825 824 823 822 820 818 817 815 813 810 808 806 803 801 799 797 795
837 837 838 838 838 839 839 839 840 840 840 841 841 842 842 843 844 844 845 845 845 845 846 845 845 845 845 845 845 845 845 845 844 843 843 843 842 842 841 841 840 840 840 840 840 839 839 839 839 838 838 838 837 837 837 837 836 836 833 831 830 830 830 829 829 828 826 825 825 824 823 821 819 817 815 814 812 809 806 804 802 799 797 795 794
836 836 837 838 838 839 839 839 839 839 839 840 841 841 842 843 844 844 844 845 845 845 846 845 846 846 846 845 845 845 845 844 844 844 843 843 842 842 841 841 841 840 840 840 840 839 839 839 839 838 838 838 837 837 837 836 835 833 832 831 830 829 829 828 827 826 825 823 823 822 821 819 818 815 813 811 809 807 805 802 800 798 796 794 792
836 836 837 837 838 839 839 839 839 839 840 840 841 842 842 843 843 844 844 844 845 845 845 845 845 846 845 845 845 845 844 844 844 844 843 843 842 842 841 841 841 840 840 839 839 839 839 839 838 838 838 838 837 837 837 836 833 832 831 831 829 828 827 827 826 825 823 822 821 820 819 817 815 813 811 808 806 804 802 800 798 796 794 792 790
836 837 837 838 838 839 839 839 840 840 841 842 842 842 843 843 843 843 844 845 845 845 845 845 845 845 845 844 844 844 844 844 844 844 843 843 842 842 841 841 840 840 839 839 839 838 838 838 838 837 837 837 836 836 836 835 832 831 831 829 828 827 826 825 824 823 823 821 819 818 816 814 812 810 808 806 804 802 800 798 796 794 792 790 789
Wind_Speed
17 17 16 15 16 15 15 16 15 15 15 14 14 13 13 13 13 13 14 12 12 11 11 11 11 11 12 12 11 11 11 10 10 10 10 10 10 9 9 10 10 9 8 7 7 6 5 6 6 6 6 7 7 7 7 7 7 7 8 6 5 6 6 4 4 10 12 10 11 11 9 9 10 9 11 12 12 12 12 12 12 14 13 13 14
15 15 15 15 16 16 15 16 16 16 16 16 15 14 14 14 13 14 15 15 14 13 13 13 12 12 12 11 11 11 11 11 11 11 11 11 11 10 10 11 10 9 8 8 8 7 7 7 7 7 7 8 8 8 8 8 8 8 6 4 4 5 5 4 4 9 12 11 10 11 9 9 10 10 11 13 12 12 13 12 12 13 13 13 13
14 14 14 14 15 15 15 15 16 16 17 17 17 16 16 15 15 15 16 16 15 15 15 14 13 13 12 12 12 11 11 11 12 11 11 11 11 11 11 10 10 9 9 9 9 8 8 8 8 8 8 8 8 8 8 8 7 8 6 5 5 6 5 5 5 8 12 11 10 11 10 10 11 11 12 12 12 12 13 13 13 13 13 13 14
15 14 13 13 14 15 15 15 15 16 17 17 17 18 17 17 16 16 17 16 16 17 16 14 13 13 13 13 13 12 12 12 13 12 12 11 11 11 10 9 9 9 9 9 9 9 9 8 8 8 7 7 7 8 8 7 7 7 7 6 6 7 7 6 7 8 10 10 10 11 11 11 12 12 12 11 11 12 13 13 13 14 14 14 15
14 15 15 14 14 14 14 15 15 16 17 17 17 18 18 17 16 16 16 15 15 17 17 16 15 15 15 14 14 13 13 13 13 13 13 12 12 12 11 10 10 10 10 10 10 9 9 9 9 8 8 8 8 8 8 7 7 7 7 6 6 6 6 7 8 8 10 11 11 11 11 12 12 11 11 11 12 12 12 13 14 14 14 14 15
13 14 15 15 15 15 15 15 15 16 16 17 17 17 18 18 17 18 19 18 16 17 17 17 15 15 15 15 15 14 14 13 13 13 13 12 12 12 11 11 11 11 11 11 11 11 10 10 10 9 9 9 9 8 8 7 7 8 7 7 6 7 7 8 9 9 10 11 12 12 12 12 12 12 11 11 12 12 12 13 14 14 14 15 16
13 13 14 15 16 16 17 16 15 16 16 16 16 16 17 18 18 20 21 20 17 17 17 17 16 15 16 16 16 15 15 14 14 13 13 13 12 12 11 11 11 12 12 12 12 12 12 11 11 11 10 10 10 9 8 8 8 9 8 7 7 8 8 9 9 10 11 11 12 12 12 12 13 13 13 12 12 12 12 13 14 14 14 15 16
12 12 13 14 15 17 18 17 17 16 15 15 16 16 16 17 17 18 18 17 17 18 17 18 18 17 16 17 16 16 16 15 15 14 14 13 13 12 12 12 12 11 11 12 12 12 12 12 12 12 12 12 11 10 9 8 8 8 8 7 7 8 9 9 10 10 11 11 12 12 12 13 13 13 13 13 12 11 12 14 15 14 14 15 16
11 11 12 13 13 14 14 15 16 16 15 14 14 15 15 15 16 17 17 17 17 18 18 18 17 17 17 17 17 16 16 16 16 15 14 14 13 12 12 12 12 12 11 11 11 11 12 12 12 12 11 11 12 12 11 10 9 9 8 8 8 9 9 10 10 10 10 11 12 12 12 13 13 13 13 13 13 14 15 15 14 14 15 16 18
13 12 13 13 12 12 11 10 10 12 13 13 13 14 14 15 15 16 17 17 17 17 17 18 17 16 16 17 17 17 16 16 15 15 15 14 13 12 12 11 11 12 12 11 11 11 12 12 12 12 11 11 12 14 15 14 13 12 11 11 10 10 10 10 10 11 11 11 12 13 13 14 14 14 14 14 15 15 15 14 15 16 16 17 18
17 16 16 14 14 15 15 13 12 10 10 11 11 11 12 14 15 15 16 17 17 16 17 17 17 17 16 16 18 19 17 14 15 16 17 16 14 12 11 11 12 13 12 11 12 12 13 13 13 12 13 12 14 15 15 14 13 13 14 14 14 14 13 13 12 12 12 13 13 14 14 14 14 14 15 15 15 14 14 15 16 16 16 15 15
20 19 18 17 16 19 21 21 21 20 18 16 13 11 10 11 12 13 15 16 16 16 17 17 17 17 17 17 18 18 16 15 17 19 20 20 18 15 13 13 14 14 13 13 13 13 13 13 13 13 13 12 12 13 13 12 12 13 14 15 16 17 18 18 16 15 13 13 14 15 15 15 14 14 14 14 14 14 15 16 16 16 16 16 17
19 19 19 18 18 19 19 20 22 22 22 22 21 18 15 14 14 13 13 14 15 14 15 17 18 18 18 17 17 16 15 16 18 19 19 20 19 18 16 15 15 15 14 14 14 13 13 13 13 13 13 12 11 12 12 13 13 14 15 16 16 18 20 20 21 20 18 16 15 16 15 15 15 15 15 15 16 16 16 17 17 17 18 18 19
14 13 13 13 15 16 17 18 20 21 21 20 21 20 19 17 16 13 12 14 15 14 15 18 18 18 18 17 16 16 14 12 14 16 17 16 16 16 16 15 15 15 15 15 15 14 13 13 13 13 12 12 13 14 14 14 14 14 15 16 16 17 18 19 20 21 21 20 20 19 17 17 18 18 17 16 16 16 16 17 18 19 20 21 23
5 4 4 4 5 9 13 14 17 18 19 20 20 21 21 18 15 15 15 16 17 17 17 19 18 17 17 17 16 15 12 9 10 13 15 14 14 15 16 16 15 16 15 16 16 16 15 14 14 14 13 13 14 14 14 14 13 14 15 16 16 17 18 19 20 21 21 21 21 21 19 18 19 18 17 16 17 17 18 21 21 21 22 23 24
7 6 4 3 1 3 7 9 9 9 11 14 17 18 20 19 18 18 17 18 19 19 18 19 18 16 14 16 16 13 9 8 10 12 12 12 13 14 14 15 15 16 16 16 16 16 16 15 15 15 14 14 14 14 14 14 13 13 15 16 18 19 19 20 20 21 21 21 21 20 20 20 20 20 20 20 20 21 22 22 21 19 19 20 21
9 9 7 5 4 3 3 3 4 3 4 8 12 13 14 14 16 17 17 18 22 21 17 17 17 15 15 16 12 7 7 7 9 10 10 10 11 12 12 14 16 17 17 18 17 17 17 16 15 14 12 10 10 11 12 13 12 12 14 17 18 20 21 21 21 20 19 20 22 22 21 19 19 20 21 21 21 21 21 20 18 17 17 17 18
11 10 9 7 5 5 5 5 6 6 4 3 5 7 7 9 12 14 15 18 21 21 17 15 13 13 13 12 8 2 4 3 5 5 7 8 9 10 12 13 14 15 16 16 17 18 16 14 12 11 8 7 8 9 11 12 12 11 13 15 16 17 18 18 18 19 18 16 17 18 18 16 17 19 21 23 23 21 21 21 19 18 18 17 18
12 10 9 8 7 7 7 7 7 7 7 6 5 2 2 4 8 10 11 14 17 17 18 17 13 10 8 5 3 2 3 2 3 3 4 6 9 11 10 9 11 15 16 16 17 16 15 11 8 8 8 10 11 12 13 13 12 11 11 13 14 14 14 14 14 15 15 15 14 15 17 18 19 21 22 23 22 19 19 20 20 18 18 18 19
11 11 9 9 8 8 8 9 8 7 6 5 5 4 4 2 3 4 4 7 10 10 10 10 10 7 7 8 4 6 5 4 3 3 4 5 7 8 8 8 9 11 10 12 15 14 12 10 9 8 8 10 11 10 10 10 10 10 10 11 12 12 13 15 15 14 15 16 16 17 19 20 20 20 20 19 17 17 18 19 17 16 18 19 19
10 10 10 9 9 8 9 9 8 8 7 6 4 3 2 2 4 5 4 4 6 6 5 7 9 11 12 11 7 4 5 4 3 3 3 3 4 4 4 5 6 6 6 8 12 11 8 8 8 8 9 9 8 8 8 9 11 12 12 12 13 14 16 17 17 15 15 16 17 17 17 16 17 16 16 15 15 16 18 17 13 12 15 16 17
10 10 9 9 9 9 9 8 8 8 8 7 6 4 3 3 4 4 4 5 6 5 5 4 4 7 7 6 6 4 3 2 1 2 1 1 2 2 1 1 2 2 4 6 8 8 9 8 7 7 8 8 7 8 9 10 12 13 13 13 13 14 16 17 16 15 15 15 16 16 14 14 15 14 13 14 15 14 15 15 14 14 15 15 17
9 9 9 8 8 8 8 8 8 8 8 8 7 7 7 7 7 6 6 8 9 9 8 7 6 7 8 8 8 7 5 3 4 4 4 4 4 4 3 3 4 4 1 2 4 5 6 7 9 9 9 9 10 10 10 10 11 11 12 12 12 12 14 15 15 14 14 14 14 14 13 14 16 14 13 13 14 15 16 16 16 17 17 18 19
7 7 7 6 6 6 6 7 7 7 8 8 8 7 8 8 9 9 8 8 9 8 9 8 8 8 9 9 9 9 9 8 9 9 9 8 7 6 6 6 6 5 4 2 3 4 4 5 9 10 10 10 11 11 10 10 10 11 12 12 11 11 12 12 12 11 11 12 12 13 12 12 13 13 12 12 13 14 17 16 15 14 16 19 20
7 6 6 5 5 4 4 5 6 6 6 6 7 7 7 7 7 7 7 7 8 7 7 8 8 8 8 9 8 8 7 8 9 10 10 9 9 8 8 9 9 8 6 4 4 5 6 7 8 9 9 9 10 10 9 9 8 9 9 7 8 8 8 9 9 9 10 11 11 12 11 11 11 12 12 12 14 15 15 15 14 14 15 17 19
6 5 5 5 4 4 3 4 5 6 5 5 5 5 5 6 6 5 5 6 6 6 6 6 6 6 6 6 7 6 5 5 6 7 7 7 7 9 10 10 10 9 8 6 6 8 9 9 8 7 7 6 6 6 6 6 6 7 6 6 7 8 7 7 7 9 10 11 12 12 12 12 13 14 14 13 14 14 14 14 14 14 13 15 18
5 5 5 5 5 5 6 6 5 5 5 5 5 5 4 4 3 3 4 4 3 3 4 4 4 4 4 4 4 3 4 5 5 4 6 6 7 8 9 9 9 10 8 6 7 8 10 9 7 5 4 5 5 6 6 5 6 8 8 7 7 7 7 7 8 8 9 10 11 12 13 13 14 15 15 14 13 13 13 14 15 15 15 16 17
5 5 5 6 6 5 5 5 5 5 5 5 7 7 6 5 5 5 6 7 5 4 3 3 3 2 1 2 1 1 4 7 6 4 5 7 8 9 8 8 8 8 8 8 8 8 9 9 8 6 5 4 6 8 8 6 5 8 8 7 7 8 8 8 8 7 8 10 11 12 13 13 13 14 14 13 13 13 13 14 15 16 17 17 16
3 4 5 5 5 5 4 5 5 5 4 6 7 8 8 7 7 7 7 6 6 5 5 5 5 3 4 4 3 3 6 8 7 6 7 7 8 8 8 8 8 9 10 9 8 8 9 10 10 7 4 4 4 5 4 3 4 6 6 6 8 8 8 7 7 8 10 11 11 12 12 12 13 13 13 12 12 12 12 14 15 16 16 16 16
2 4 5 6 6 6 5 6 6 6 5 5 6 6 7 7 6 7 7 7 5 4 3 4 4 2 4 5 3 4 5 7 7 6 6 8 8 8 9 9 9 10 10 8 7 8 9 9 7 4 3 4 4 2 3 4 5 5 6 6 7 7 6 6 7 9 11 11 10 10 11 12 12 12 12 12 12 12 12 12 13 13 14 14 15
4 6 7 7 7 8 7 6 6 6 6 6 4 3 4 5 6 8 9 9 8 6 5 4 3 1 2 4 3 3 4 4 6 6 6 7 8 8 9 9 9 10 10 7 6 7 8 8 6 4 3 4 3 2 3 4 5 6 8 8 8 7 6 8 10 11 11 10 10 10 11 12 12 12 12 12 12 12 12 12 12 12 13 13 14
5 6 7 7 7 7 6 6 5 5 5 5 5 3 1 3 5 6 7 7 8 7 6 6 6 4 2 1 1 3 5 5 6 6 6 7 8 8 9 9 9 8 7 5 5 7 8 7 6 4 4 4 4 4 4 4 6 7 8 9 9 9 8 10 12 12 11 10 11 11 11 11 11 12 12 12 13 13 12 12 12 13 13 13 13
8 8 7 6 6 6 6 5 5 5 5 5 4 4 4 3 2 3 3 3 4 4 5 5 5 5 5 3 3 4 6 7 7 7 7 7 7 7 8 8 8 7 6 5 6 8 8 7 5 5 4 4 5 5 5 5 7 8 8 9 10 9 9 10 11 11 10 11 12 11 10 11 11 12 12 12 12 12 13 13 13 13 13 13 14
6 8 9 7 6 6 6 6 5 5 5 6 5 4 4 5 4 2 2 3 2 2 2 1 3 5 6 6 4 5 6 7 8 8 7 7 7 7 7 8 8 8 8 8 7 7 7 6 6 5 5 5 6 7 7 7 8 8 9 9 10 10 10 10 10 10 11 13 12 10 10 11 12 12 12 12 11 12 13 13 13 13 13 14 14
4 5 8 8 6 6 6 6 6 6 6 5 6 5 5 4 4 4 3 1 2 2 3 5 3 3 6 6 4 5 9 11 11 9 7 7 7 7 7 7 8 8 8 8 7 7 6 6 7 7 7 7 7 7 8 8 9 9 9 10 10 11 11 11 10 10 12 13 12 11 11 12 12 12 12 12 12 12 12 13 13 13 14 14 14
3 4 5 6 6 6 6 6 6 7 7 6 5 5 5 5 4 4 4 3 3 4 2 3 4 1 2 3 3 6 11 13 9 5 4 5 5 6 7 7 7 7 6 7 7 7 6 7 8 8 8 8 8 8 8 9 9 9 9 9 10 10 10 11 11 11 11 12 12 11 11 11 12 12 13 13 13 13 14 14 14 13 14 15 16
3 4 5 6 5 5 5 4 4 6 6 6 5 5 4 5 5 4 4 4 3 4 5 3 1 2 4 3 1 8 11 10 6 2 1 3 3 4 6 7 7 7 7 6 7 7 7 7 7 7 7 8 8 7 8 8 8 9 9 9 9 10 11 13 14 13 11 11 12 12 12 12 13 13 14 14 15 15 15 15 15 15 16 17 18
1 2 5 6 5 3 4 4 4 5 5 4 4 4 4 4 4 4 4 4 3 3 4 3 3 3 2 1 3 9 11 11 9 5 2 2 3 4 6 7 7 7 7 7 8 9 9 9 9 9 9 8 7 6 6 7 8 8 9 10 11 11 13 15 15 13 12 13 14 14 14 14 14 15 15 15 16 16 17 17 17 18 18 18 18
1 2 6 7 4 3 4 4 4 4 4 4 4 4 4 4 4 4 3 3 3 3 3 3 3 5 7 8 8 11 12 13 11 8 4 3 4 5 6 7 8 8 7 7 9 10 10 9 9 8 7 6 5 5 5 7 8 8 10 11 12 13 14 14 14 14 14 14 15 15 15 15 15 16 16 16 17 18 19 20 20 20 19 18 18
1 2 3 5 4 3 3 3 3 3 3 4 4 4 4 3 4 4 4 4 3 3 4 4 3 5 8 9 10 11 12 12 11 9 7 6 6 7 9 11 11 10 10 11 12 13 13 13 13 10 6 4 4 4 4 6 7 9 10 12 13 14 14 13 14 14 15 15 15 15 15 16 17 17 17 17 18 20 21 22 22 21 20 20 20
2 2 2 1 3 3 2 2 2 3 4 4 4 4 4 3 4 4 4 5 4 3 4 4 2 5 6 8 9 9 10 11 10 8 7 6 6 9 12 13 13 12 12 12 12 11 12 13 14 13 11 10 9 8 6 6 7 9 11 11 12 13 14 14 14 15 15 16 16 16 16 16 17 18 18 19 20 20 21 21 22 21 21 22 22
3 3 2 2 2 1 1 1 1 2 3 3 4 5 5 4 5 5 4 5 5 4 4 5 1 3 6 10 10 8 8 9 9 7 7 6 7 8 9 9 9 10 10 10 10 10 10 11 11 11 11 11 10 9 9 8 8 9 10 10 11 12 12 13 14 15 16 16 16 16 16 17 17 18 19 21 21 22 22 22 22 21 22 22 22
3 4 3 3 3 2 1 0 0 1 1 2 3 4 5 5 5 5 4 5 5 5 5 6 5 4 7 11 10 7 7 7 7 6 6 7 7 7 7 7 8 9 9 10 10 9 9 9 9 9 9 9 8 8 8 8 8 8 9 9 10 10 11 12 13 14 15 16 16 16 17 17 18 18 19 20 21 22 22 22 22 22 23 22 22
4 5 5 4 4 3 2 1 1 2 1 2 3 4 4 5 5 5 5 5 6 6 6 6 7 7 8 9 8 6 6 6 6 6 7 7 7 7 7 7 8 8 8 9 9 8 8 8 8 8 8 8 8 8 8 8 9 9 9 10 11 12 13 13 13 13 14 15 16 17 17 17 17 18 19 20 20 21 22 22 22 23 24 23 23
5 5 6 6 5 4 4 3 2 2 2 3 3 4 4 5 4 4 5 5 5 6 6 6 7 7 7 7 7 6 6 6 6 6 7 7 7 8 8 8 7 7 8 8 8 8 8 8 8 8 8 9 8 8 8 9 10 10 11 12 13 13 12 11 11 13 15 16 16 16 17 17 18 19 20 21 22 23 23 24 23 23 23 23 23
6 5 6 6 5 5 4 3 3 2 2 3 4 4 4 4 4 4 4 5 5 6 6 6 7 7 6 6 6 6 6 6 6 6 7 7 8 8 9 9 8 6 7 8 8 8 9 9 9 9 9 9 9 9 10 10 10 11 12 12 11 10 10 11 13 15 16 16 18 19 20 20 21 22 22 22 22 23 23 24 23 24 24 24 23
5 5 5 5 4 4 4 3 2 2 2 3 4 4 4 4 4 4 5 5 5 6 6 6 6 6 6 6 6 6 6 7 7 6 7 7 9 10 10 10 9 8 7 8 8 9 9 9 10 10 10 9 10 10 10 11 12 12 11 10 8 9 11 14 14 14 15 18 20 21 20 21 22 22 22 22 22 22 23 24 24 24 23 23 23
5 5 4 4 4 4 4 4 3 3 4 4 4 3 3 4 4 5 5 5 5 5 5 5 5 5 5 6 6 6 6 7 7 7 7 8 9 9 9 9 9 9 9 8 8 9 9 9 10 11 10 10 10 11 11 12 12 10 8 8 11 14 16 17 17 18 20 22 21 19 19 20 21 22 22 22 23 23 24 24 23 24 23 22 23
5 5 4 4 4 3 3 3 3 3 3 3 3 3 4 5 5 5 5 5 5 5 5 5 5 5 5 5 6 6 6 7 7 7 7 8 8 8 8 9 10 10 10 9 9 9 10 10 11 11 11 11 11 11 11 11 10 8 8 12 16 19 20 21 22 23 24 25 23 21 20 21 21 22 23 23 23 24 24 23 23 23 22 22 22
4 3 2 3 4 3 2 2 1 2 2 2 3 4 5 5 5 5 5 4 4 4 4 4 4 5 5 5 6 6 6 7 7 7 8 8 8 8 8 9 10 10 10 10 10 10 11 11 11 11 11 11 11 11 11 10 9 9 12 16 19 21 22 23 24 24 24 25 24 24 24 22 22 22 23 23 23 23 23 22 22 22 22 21 22
4 3 2 2 2 2 2 2 2 2 3 3 4 4 5 5 5 4 4 4 4 4 4 4 4 5 5 5 5 6 6 7 7 8 8 8 8 9 9 9 9 10 10 10 10 11 11 11 11 12 11 11 12 12 11 10 11 14 17 19 20 21 22 22 23 23 24 24 24 25 24 22 21 21 22 22 22 22 22 22 22 21 21 21 21
Wind_Direction
192 195 198 197 197 197 198 199 202 205 205 207 209 207 209 208 202 202 204 211 216 211 210 213 208 207 207 205 205 205 202 206 205 200 205 213 215 212 205 206 216 226 230 235 239 241 240 245 254 256 258 265 268 270 270 265 259 257 255 259 279 293 299 307 307 296 297 303 303 307 320 316 312 314 311 312 317 322 323 318 314 311 308 315 318
195 196 197 199 199 199 200 200 203 207 207 207 209 208 208 208 208 209 208 209 212 211 211 214 211 211 210 205 207 209 202 205 212 207 207 214 216 215 215 214 219 225 227 228 231 235 235 238 246 249 248 251 256 262 265 265 267 268 262 263 290 300 304 303 289 287 292 301 306 305 310 312 310 309 307 312 319 320 319 316 314 312 313 318 315
197 198 199 202 203 203 203 203 204 207 210 210 211 211 210 208 209 212 212 207 205 207 211 213 212 210 211 209 208 208 203 206 216 216 210 211 217 222 221 214 214 222 227 228 227 229 232 235 239 243 244 244 248 258 266 267 274 284 290 296 291 279 272 260 249 268 286 298 306 306 309 313 310 307 307 311 315 316 313 311 311 312 312 314 313
196 197 200 203 206 208 207 207 209 210 212 213 213 213 213 212 210 210 214 212 203 201 207 214 213 207 209 210 206 206 206 208 217 220 214 211 218 227 229 221 219 223 227 228 229 230 230 232 235 238 240 244 248 255 263 266 266 269 271 270 267 266 267 261 254 267 286 297 301 303 306 307 305 306 309 311 312 310 307 305 306 308 309 310 310
195 196 199 203 208 213 210 210 214 215 216 216 216 215 216 215 210 208 218 221 207 199 205 212 211 207 208 208 206 207 209 210 215 218 216 215 217 223 227 225 225 226 229 230 230 231 232 234 236 235 234 237 243 247 251 254 258 262 265 262 261 265 270 273 276 280 287 293 297 299 299 299 300 303 304 306 308 307 306 308 307 306 307 307 307
196 198 200 203 207 212 214 215 218 218 220 221 220 218 217 216 211 210 216 222 215 205 203 208 211 210 211 211 207 207 209 211 214 218 219 219 219 222 223 224 226 227 228 228 229 231 232 235 236 236 236 237 239 244 246 249 256 261 263 266 270 275 277 277 278 280 281 284 289 292 294 297 300 301 301 302 305 305 305 305 304 304 305 306 307
195 201 205 207 208 211 214 216 219 220 221 222 223 222 219 217 214 212 214 217 220 215 205 205 211 213 214 215 210 206 207 208 211 216 221 221 220 222 224 226 228 229 229 230 231 231 231 233 235 233 235 239 240 243 244 247 252 255 257 261 267 271 274 278 278 280 282 284 286 290 295 301 302 303 304 301 295 292 295 297 299 302 303 303 304
194 200 206 211 212 214 215 215 217 220 221 222 224 226 224 220 218 216 216 215 219 222 214 206 208 211 214 217 213 207 206 208 210 211 217 223 223 221 225 229 232 235 236 236 236 237 237 239 239 236 235 236 239 243 244 247 252 255 257 259 262 265 269 275 278 280 282 285 289 292 295 297 296 296 298 296 293 296 300 299 297 299 302 303 304
206 207 209 211 213 218 220 218 215 217 219 220 222 224 226 225 221 218 219 218 216 221 223 218 215 211 211 215 216 212 208 210 212 210 211 220 225 226 228 230 235 239 241 241 243 243 244 245 246 248 244 231 226 230 235 245 256 261 262 262 262 265 268 271 275 278 280 282 284 288 290 289 288 292 298 304 308 309 306 305 306 309 310 307 304
219 219 218 216 215 218 221 218 209 209 214 217 220 225 227 227 224 220 218 219 218 217 220 222 222 218 215 215 215 218 218 215 215 214 214 218 223 229 234 235 240 244 242 245 249 249 250 252 253 256 252 237 233 239 245 252 255 254 256 260 261 264 267 270 271 272 275 277 280 282 285 286 290 297 302 304 306 306 308 316 318 313 308 304 299
221 222 223 223 224 226 228 228 224 222 222 217 216 226 232 233 233 228 222 221 222 221 219 222 224 224 223 219 216 219 221 218 218 218 215 216 219 225 233 236 238 242 241 243 249 252 254 254 253 252 250 247 251 255 255 253 251 251 251 251 253 255 257 261 264 267 269 271 274 277 280 284 289 293 297 301 306 312 315 314 309 302 300 297 294
220 222 225 226 229 234 239 242 244 247 249 242 235 239 248 250 246 239 232 226 222 221 222 223 225 226 227 227 225 226 226 223 224 224 220 219 223 228 235 238 237 240 241 240 243 248 251 255 256 254 251 248 247 248 247 246 252 259 256 249 246 246 246 249 252 256 261 266 271 274 277 283 287 288 293 303 312 313 308 302 297 295 294 292 289
222 225 229 230 232 235 238 240 242 244 246 247 247 249 252 253 250 245 240 234 230 230 230 227 225 226 231 233 232 236 240 232 223 220 220 221 225 230 236 242 243 243 243 243 243 243 245 250 255 258 260 259 253 248 247 251 257 263 262 258 253 249 247 247 248 251 254 259 265 269 272 278 283 285 290 299 302 300 296 294 294 294 293 292 290
217 221 225 228 230 232 233 235 236 233 233 236 238 240 241 240 240 240 240 241 238 240 245 241 231 223 225 231 234 236 242 236 220 215 216 218 223 228 233 241 246 246 245 246 246 245 244 246 250 253 255 256 255 252 250 252 253 254 257 259 259 257 256 254 253 254 253 253 255 261 266 271 274 279 284 287 288 288 291 295 297 296 294 291 289
160 169 172 186 214 227 233 239 238 233 230 229 230 235 234 230 229 228 232 238 232 228 241 250 249 239 226 222 226 230 233 229 217 214 215 217 224 230 234 242 250 250 248 245 244 245 244 243 247 251 254 255 255 254 252 251 250 250 253 257 259 260 260 259 258 256 254 253 253 256 262 268 271 275 280 285 286 287 292 295 296 296 293 291 288
89 88 96 100 119 217 228 237 241 241 239 233 234 237 232 224 225 227 229 234 229 228 239 245 248 258 256 238 226 219 213 207 202 205 213 222 230 236 239 244 251 255 254 249 246 246 246 245 246 249 252 253 253 252 251 251 256 264 268 268 267 266 265 265 261 257 255 258 259 260 265 269 272 277 284 291 295 297 298 296 295 293 290 289 290
71 73 83 98 116 141 165 194 207 217 242 240 238 240 231 223 227 230 230 229 226 229 241 242 236 245 267 275 260 208 176 182 187 196 212 223 231 240 244 248 250 252 256 256 252 248 246 247 250 253 255 254 250 249 249 251 262 276 280 280 279 278 279 280 279 279 278 274 272 273 275 276 280 287 293 297 300 302 298 292 289 290 288 286 288
66 63 62 71 93 108 102 96 108 116 124 173 214 233 233 227 232 235 233 231 230 230 236 243 238 229 244 283 313 62 124 167 183 196 221 229 235 240 247 259 261 260 267 276 275 270 265 258 251 248 257 267 261 257 257 258 265 274 280 285 288 291 295 297 298 300 298 289 284 284 284 286 291 297 299 298 299 299 292 285 285 289 290 290 292
67 66 57 56 67 78 81 79 85 96 107 117 124 126 174 214 232 237 232 230 232 231 230 234 238 231 232 268 290 171 137 143 183 217 250 253 254 250 251 269 275 268 271 277 281 291 302 298 269 239 246 264 266 262 261 261 264 267 272 281 287 291 296 302 307 309 304 299 299 294 289 290 292 293 294 295 297 297 291 289 288 284 283 288 296
65 68 65 64 65 68 71 70 71 82 93 99 94 80 76 112 177 193 196 204 206 204 202 200 191 158 110 86 115 181 179 154 170 216 246 265 274 266 258 267 270 266 273 281 283 296 317 313 284 251 243 254 258 257 258 260 263 266 271 278 284 284 286 291 300 305 300 295 294 291 289 289 289 288 288 288 291 294 293 292 288 279 277 283 291
61 64 66 68 69 71 74 72 71 75 80 84 88 88 93 117 128 132 129 156 182 176 133 112 111 103 93 85 91 151 191 178 158 176 207 271 302 292 264 266 270 269 286 301 296 294 301 308 297 267 249 251 256 263 272 278 279 280 279 277 276 276 281 288 295 295 289 287 286 286 287 289 290 290 289 287 291 295 295 297 296 284 279 282 285
58 58 59 64 69 72 75 76 75 73 73 76 81 82 100 118 113 117 124 129 138 133 112 111 93 76 86 104 105 121 188 207 144 123 110 17 342 328 288 302 1 345 291 293 300 292 283 287 291 272 261 269 283 289 294 296 294 290 285 281 280 282 288 294 296 292 288 287 286 285 286 291 293 292 291 292 293 291 293 299 300 292 288 287 283
56 54 49 51 60 67 71 73 78 79 74 71 70 66 67 74 77 81 92 102 106 101 102 127 138 110 105 116 112 106 110 94 66 54 48 38 16 1 353 5 47 71 91 286 316 326 305 277 269 275 283 289 294 297 299 299 298 295 293 294 296 297 298 299 294 287 284 286 289 291 292 294 295 293 294 297 296 293 296 300 297 293 293 294 289
61 62 54 46 47 57 65 66 68 74 75 73 73 70 66 62 62 66 72 79 86 92 97 109 118 116 118 119 108 94 85 71 58 55 55 49 35 25 25 29 40 62 73 39 325 332 330 289 277 285 292 290 290 292 294 298 304 304 303 304 304 301 300 296 288 283 285 290 297 299 297 295 293 291 294 299 299 299 302 303 298 294 294 295 293
59 66 66 57 44 46 72 81 73 69 69 71 70 68 69 69 63 63 67 68 68 75 87 98 100 100 107 109 101 91 83 70 58 54 52 45 33 25 30 37 40 43 46 31 344 327 328 323 315 311 307 305 304 301 298 299 306 312 317 318 308 298 290 283 284 292 300 303 305 305 305 306 306 305 308 310 308 306 307 307 304 302 302 302 300
54 58 63 63 46 32 54 75 79 76 72 71 71 65 61 67 71 73 76 78 77 77 78 87 95 100 100 96 93 95 96 85 67 49 34 25 15 9 11 18 22 26 26 12 350 338 330 329 331 325 323 331 330 318 305 295 295 306 314 311 299 289 284 292 306 313 313 314 315 314 317 323 326 327 327 322 316 315 318 320 317 314 315 313 308
47 51 58 61 49 38 35 33 44 64 68 63 69 73 66 64 72 67 53 52 74 103 103 97 94 100 106 100 96 107 109 102 87 51 24 19 12 5 4 3 3 9 9 353 336 327 318 318 323 321 326 339 329 308 295 287 293 297 294 294 298 298 305 324 332 328 324 324 324 325 327 331 333 334 332 326 324 328 333 334 330 326 324 320 313
30 36 44 48 46 46 44 28 24 47 65 59 52 48 44 51 64 56 35 20 13 17 48 89 89 69 73 84 64 63 96 97 86 43 14 12 11 9 5 355 348 344 332 317 313 311 305 300 290 276 276 301 310 301 288 285 311 318 316 325 333 329 331 336 332 332 339 338 331 326 325 325 324 324 323 321 320 324 330 331 327 324 323 321 316
34 41 46 50 44 39 47 45 25 24 59 83 72 49 37 40 53 55 40 25 20 17 19 42 51 16 10 42 32 359 34 48 35 12 1 352 352 359 355 344 335 326 316 308 306 303 298 288 274 261 261 284 298 305 308 317 337 337 338 344 337 329 335 339 337 342 344 335 323 316 314 313 311 310 309 309 310 312 317 317 315 315 316 314 310
48 49 44 44 33 19 30 47 32 12 21 58 77 73 62 53 49 48 42 31 28 29 23 35 46 23 22 40 22 333 355 6 352 343 338 332 334 341 338 332 329 324 317 308 297 295 295 291 281 270 284 293 290 319 351 351 349 346 345 346 341 338 342 346 349 347 337 323 315 313 312 310 308 307 307 309 310 310 310 309 308 308 307 306 306
50 54 50 43 25 12 21 37 33 20 17 21 30 62 91 87 67 53 50 44 36 32 27 27 36 52 73 65 38 340 322 322 319 318 316 318 324 326 324 325 326 324 320 310 294 290 289 287 284 279 277 284 295 329 339 338 348 352 344 337 336 339 344 351 352 341 326 318 317 316 312 310 310 313 315 314 313 314 313 312 311 307 305 306 306
44 50 52 49 31 19 25 29 23 25 26 18 8 359 22 125 114 86 64 55 51 48 42 32 26 17 3 46 37 339 319 309 307 309 309 311 314 316 319 321 318 318 320 311 295 294 291 286 285 286 283 286 299 313 320 327 338 340 334 330 330 328 332 341 341 331 322 323 324 317 313 316 319 320 320 318 318 319 318 317 316 313 311 310 308
40 40 39 42 34 25 27 26 21 23 20 15 14 359 340 353 94 119 115 95 75 67 60 50 45 33 9 343 310 309 315 313 306 301 299 301 303 304 309 313 311 310 309 301 295 296 296 291 288 288 288 292 300 307 316 324 325 323 321 320 319 322 330 333 327 322 324 326 321 315 318 326 328 324 321 322 323 323 322 321 319 318 317 316 315
32 33 32 35 33 23 21 19 16 18 15 7 4 359 354 353 347 327 185 172 172 159 144 104 62 45 27 6 342 326 328 325 314 303 295 294 298 301 302 302 302 298 291 286 285 288 293 298 301 300 301 304 305 309 314 314 310 307 309 309 308 316 327 324 318 325 332 326 319 320 326 329 327 323 322 324 326 325 324 323 322 322 322 320 318
25 30 32 32 29 18 15 14 8 6 10 6 353 347 351 346 325 320 322 294 284 278 208 186 157 52 22 5 355 359 354 341 325 310 301 296 294 298 299 295 291 285 272 258 259 274 292 302 301 303 307 308 307 307 308 307 306 305 307 308 307 310 313 313 319 332 332 321 316 323 326 324 324 323 323 323 323 323 323 321 321 322 321 319 318
30 42 37 31 25 17 11 9 4 359 358 352 340 337 340 334 323 327 334 329 329 335 318 204 190 207 353 350 360 4 356 344 331 318 322 323 309 295 292 288 288 289 273 245 243 262 283 292 292 294 296 297 300 302 298 295 299 304 306 311 314 311 308 313 322 326 320 314 315 318 320 322 324 324 323 322 323 323 321 319 319 318 318 318 317
32 54 36 17 10 4 1 359 355 350 344 332 326 329 332 334 337 335 334 345 349 334 330 335 300 247 217 193 28 6 357 349 344 337 339 354 347 302 281 275 283 297 295 278 270 274 279 283 290 293 289 284 290 302 306 301 298 300 308 322 329 319 307 308 310 304 299 307 314 314 316 321 323 321 321 322 322 321 320 319 318 316 316 316 312
27 36 5 0 358 344 343 345 338 336 331 315 312 325 326 328 337 332 325 334 332 312 317 337 333 308 258 188 18 5 357 350 345 333 277 263 295 295 287 287 294 296 291 289 293 293 285 276 277 280 279 277 282 300 316 315 308 307 313 320 321 314 308 308 308 302 300 307 312 313 315 319 318 318 319 319 319 320 319 318 317 314 312 310 307
302 312 342 4 14 347 336 340 331 330 334 323 319 327 324 321 327 326 319 315 309 320 342 336 330 2 23 24 12 1 352 345 344 346 340 318 310 308 311 315 313 305 303 320 342 346 336 321 310 296 279 275 286 297 298 300 306 315 319 317 313 310 310 312 313 311 309 311 313 315 315 315 315 317 318 316 317 320 319 316 313 309 306 304 302
237 275 342 6 6 337 325 329 324 328 339 342 337 328 322 326 327 321 321 325 325 338 346 333 345 32 25 4 351 347 339 327 325 335 346 344 336 341 352 355 353 350 353 4 14 15 10 7 6 4 0 4 5 347 313 300 306 315 317 314 311 310 308 309 312 314 315 318 320 320 315 312 314 318 320 318 318 317 315 312 310 307 304 301 300
235 242 252 310 336 335 310 294 329 354 353 344 336 324 319 331 330 318 318 328 331 333 327 320 7 70 38 349 338 339 327 310 306 317 330 334 339 351 360 3 1 360 1 7 12 10 7 9 12 12 14 21 24 17 1 344 333 327 324 323 320 315 309 306 308 311 314 316 316 313 311 313 315 315 313 311 311 312 311 311 310 309 306 304 301
260 271 253 230 240 284 274 265 3 7 343 321 323 329 331 327 320 317 320 319 317 320 319 307 291 92 43 7 355 342 313 298 297 306 313 318 329 341 348 350 351 354 357 1 3 0 354 355 360 3 7 11 13 9 2 353 343 333 327 323 319 317 314 310 308 308 309 309 309 308 310 314 316 313 308 306 307 308 308 308 308 307 306 304 303
259 264 260 251 241 235 231 216 265 289 305 317 320 323 324 316 307 305 304 302 302 306 312 303 286 292 341 350 349 330 300 296 301 307 308 310 319 328 332 337 346 355 357 356 357 356 345 338 342 350 356 0 3 358 351 347 346 342 333 324 321 321 319 316 315 316 315 313 312 311 310 310 308 306 306 306 307 306 305 305 305 305 303 301 300
256 256 245 237 234 227 221 230 245 250 282 304 287 283 288 291 295 296 295 297 301 302 303 306 302 300 314 329 331 319 307 307 312 314 312 309 313 321 328 332 336 343 346 344 346 351 346 336 335 338 340 344 349 346 341 337 337 334 329 325 322 318 315 315 320 326 327 324 320 317 316 316 313 310 308 308 307 306 305 304 304 303 301 300 298
239 248 241 230 222 216 211 209 213 225 256 271 268 267 269 269 277 290 294 297 302 302 300 302 303 303 308 318 324 325 326 324 321 321 321 318 318 326 334 335 331 330 331 330 332 337 340 337 334 332 330 331 333 333 331 327 323 321 321 320 317 315 317 320 323 325 328 329 329 328 327 324 320 315 311 309 307 305 303 302 302 303 302 301 298
234 236 240 234 227 222 213 204 201 214 252 271 270 268 268 266 273 288 293 291 295 299 298 296 296 298 304 310 315 318 321 320 321 322 323 327 334 343 350 352 348 334 325 326 330 333 332 330 328 328 328 328 327 326 325 322 320 321 322 317 312 312 317 318 319 323 326 325 324 323 322 319 315 311 308 305 303 301 300 301 301 302 302 300 298
232 227 234 233 227 226 221 212 209 220 246 261 265 271 280 284 279 278 280 280 284 289 289 288 291 295 298 303 309 312 314 316 317 316 320 336 352 358 0 2 0 349 335 329 329 327 326 326 325 322 322 321 322 323 322 319 319 322 322 318 320 326 324 322 327 334 331 324 320 318 316 313 309 306 303 302 300 299 299 299 299 298 297 297 297
219 215 221 221 223 231 227 214 207 215 227 235 241 255 276 279 268 264 268 273 278 282 284 285 289 295 297 300 305 309 312 316 316 313 318 334 347 351 351 351 350 346 338 330 326 322 323 326 327 326 323 318 316 317 318 317 318 321 321 324 332 333 329 327 331 331 326 323 323 321 315 308 304 301 300 299 298 296 296 296 296 296 295 293 293
213 211 207 202 208 223 229 220 217 219 226 232 237 245 257 262 260 260 267 272 274 279 284 286 293 298 300 302 305 309 311 314 314 313 314 320 327 333 334 335 336 337 335 329 323 318 315 317 321 325 324 319 316 317 317 316 317 319 319 320 325 327 325 323 324 323 323 324 324 321 315 308 302 298 297 295 294 294 293 293 293 294 293 292 292
200 205 195 187 191 201 211 218 230 242 247 254 255 249 249 253 256 258 265 271 274 277 283 289 297 301 302 305 310 313 315 316 317 318 318 319 321 325 325 324 325 328 327 324 320 315 311 311 314 317 318 318 318 318 314 312 319 330 328 323 321 321 320 319 319 321 323 323 321 319 317 311 304 300 299 298 296 295 293 293 293 294 294 293 293
178 189 187 172 171 187 207 211 216 228 238 244 245 241 242 246 250 252 259 266 271 278 286 292 296 301 304 309 314 316 318 319 319 319 319 321 324 327 327 326 326 326 324 321 319 314 310 310 311 310 309 311 313 312 307 309 323 330 327 322 320 320 319 320 323 326 326 323 321 321 321 315 306 301 301 299 297 297 296 295 295 295 294 294 294